Wind_Speed
40 41 41 43 43 43 43 44 44 44 45 45 45 45 46 46 46 46 46 46 46 47 47 47 47 46 45 45 45 45 45 45 44 45 45 45 45 45 45 45 45 45 46
41 42 42 43 43 44 44 44 44 45 45 45 46 46 47 47 47 47 47 47 47 48 49 49 49 48 48 48 47 47 47 46 46 46 47 47 47 47 47 47 46 46 46
40 41 42 43 43 44 44 44 45 45 45 45 46 48 48 48 48 48 48 48 48 48 49 49 49 49 49 50 49 49 48 48 48 48 48 48 49 49 49 48 48 47 48
39 40 41 42 42 43 44 44 45 45 45 46 48 48 49 49 49 49 49 49 49 50 50 50 50 50 50 50 50 50 50 51 51 51 50 50 50 50 50 50 50 49 49
39 39 40 41 42 43 44 44 46 46 47 47 49 49 49 50 50 49 50 50 50 50 51 51 51 51 51 51 51 52 52 52 52 52 51 51 51 51 52 51 51 51 51
38 39 40 41 42 43 44 45 46 47 48 48 49 49 49 50 51 51 51 51 51 51 52 52 52 52 52 51 52 52 53 52 52 53 52 52 52 52 52 52 52 52 52
37 38 39 40 41 43 44 45 46 47 48 48 49 50 51 51 51 52 52 53 52 52 52 53 52 52 51 51 51 52 53 52 52 53 54 54 53 53 53 52 52 52 51
38 39 40 41 41 43 44 45 45 46 48 49 50 51 51 52 52 53 53 53 53 52 52 53 53 53 52 52 52 53 53 52 52 53 54 54 54 54 53 53 53 52 52
39 40 40 41 42 43 44 44 45 46 47 48 50 50 51 51 52 53 53 53 53 53 52 52 52 52 52 52 51 52 53 53 53 53 53 54 54 55 54 54 54 54 54
39 40 41 41 42 43 43 45 45 45 46 47 49 50 50 51 51 51 51 51 51 52 52 53 53 53 53 54 53 53 54 54 54 54 54 54 54 54 54 55 54 54 55
39 39 40 41 42 43 44 44 44 44 45 46 47 48 49 50 50 50 50 50 51 52 52 53 54 54 55 55 55 56 56 56 56 56 56 55 55 55 56 56 56 56 56
40 40 40 41 42 43 43 44 44 44 44 45 45 46 47 49 50 50 51 51 52 54 54 54 54 54 54 55 55 55 55 56 56 56 56 56 57 57 57 57 57 58 59
39 39 40 40 41 42 43 43 43 43 44 44 44 45 47 48 49 51 51 53 53 54 54 54 55 55 54 54 54 54 55 55 56 56 56 56 57 58 57 57 58 58 59
38 39 39 40 40 42 43 43 43 44 44 44 44 45 46 48 49 50 51 51 52 52 53 54 54 54 55 56 56 55 55 55 55 56 56 57 58 59 59 59 60 60 60
38 38 38 40 41 42 43 44 44 45 45 44 44 45 45 47 48 49 50 50 51 51 52 52 53 53 54 55 56 57 56 56 55 56 57 58 59 60 61 61 62 62 62
38 39 39 40 41 42 43 44 44 45 45 46 45 46 46 46 47 48 49 50 50 50 51 52 52 53 54 55 56 56 57 57 57 57 58 58 59 60 61 61 62 62 62
39 39 40 40 41 42 42 43 43 44 45 45 45 46 45 45 46 48 49 49 49 50 51 52 52 53 54 55 56 56 57 57 57 58 58 59 59 60 60 60 60 61 61
38 39 40 41 41 41 42 43 43 44 44 44 44 44 44 44 45 46 47 47 48 49 50 51 52 53 54 55 56 57 57 58 59 59 60 59 59 59 60 60 60 60 61
38 39 39 40 40 40 41 41 42 43 43 43 44 44 44 44 45 45 46 47 47 48 49 50 51 51 52 53 55 56 57 58 58 59 60 60 59 59 60 60 60 59 60
36 37 37 38 38 39 39 39 40 41 42 42 43 44 44 45 45 46 47 47 48 48 49 50 51 51 51 53 54 55 56 57 57 58 58 58 58 58 59 59 59 59 59
35 35 36 36 37 38 38 39 39 40 40 41 42 43 44 44 45 45 46 47 48 49 49 50 50 51 51 52 53 54 55 56 56 56 56 55 56 56 57 57 58 58 58
35 35 36 36 37 38 38 38 39 39 41 41 42 43 44 45 45 45 45 46 47 48 49 50 50 50 51 52 52 53 53 54 55 55 54 54 54 54 55 56 56 57 57
35 36 36 37 37 38 38 39 39 39 40 41 42 43 43 44 45 45 45 45 45 46 47 48 48 48 48 49 50 50 50 51 52 52 52 52 52 53 54 54 54 55 55
37 37 37 37 37 38 38 39 39 40 40 41 41 41 41 42 44 45 45 45 45 45 45 45 45 45 45 46 47 48 49 49 49 50 50 51 51 52 52 53 53 53 54
37 37 37 37 38 38 38 39 39 39 40 40 40 41 41 41 42 43 44 44 44 45 45 44 44 45 44 44 45 46 47 48 48 48 49 49 49 50 50 51 52 52 52
37 37 37 37 37 38 38 39 39 39 39 40 40 40 40 41 42 43 44 44 44 45 45 45 44 43 44 43 44 45 46 46 47 48 48 48 48 48 49 49 50 51 51
Wind_Direction
257 255 254 252 251 251 252 252 253 253 254 255 255 256 256 256 256 257 256 256 256 256 256 257 258 258 257 257 257 258 257 258 258 257 256 254 253 252 251 251 251 250 250
258 257 255 254 253 253 252 253 254 254 255 256 256 256 256 256 256 257 257 256 256 257 257 257 258 258 258 257 257 258 257 258 257 256 255 254 253 252 252 253 252 252 251
259 257 255 254 254 254 254 254 255 255 256 256 256 256 256 256 256 256 257 256 257 258 258 258 258 258 258 258 257 257 257 256 256 256 255 255 253 252 252 253 253 253 252
259 257 256 255 255 255 255 256 256 257 257 257 257 257 256 257 257 257 257 257 258 259 259 259 259 259 259 258 258 257 256 256 256 255 255 255 254 253 253 253 253 253 253
259 258 257 256 256 256 256 256 257 257 258 258 258 258 257 257 257 258 259 259 259 260 259 259 259 259 259 259 258 257 257 256 256 255 255 255 254 254 253 253 253 254 254
260 259 258 258 258 258 258 258 259 259 259 259 258 258 258 258 258 258 259 260 260 260 260 260 259 260 259 259 258 257 257 256 256 255 255 255 254 254 254 253 254 254 254
262 261 260 259 258 258 259 259 260 261 261 261 259 259 259 259 258 258 258 259 260 261 261 261 260 260 259 258 258 257 256 256 256 255 255 255 255 254 255 255 255 254 254
264 263 262 261 261 260 261 261 261 262 262 262 261 260 260 259 259 258 258 259 260 260 260 260 259 260 259 259 258 257 257 257 257 256 256 256 255 254 255 255 255 254 254
267 265 264 263 262 263 262 263 263 264 263 262 262 261 261 260 260 260 259 258 259 259 259 259 258 259 259 259 259 257 256 256 257 256 256 256 255 255 255 255 256 256 255
269 267 265 264 264 265 265 265 265 265 266 265 263 263 263 262 261 260 260 259 258 258 259 259 259 259 259 259 259 258 257 257 255 255 255 256 255 255 255 255 256 257 257
270 267 265 264 265 266 266 266 267 266 267 267 266 265 264 264 262 260 259 258 258 258 259 259 260 260 259 259 259 258 258 257 256 255 255 256 255 255 256 256 256 256 257
269 267 266 266 265 266 267 267 268 268 268 268 267 266 265 264 262 261 260 259 259 259 260 260 261 260 260 259 259 259 258 258 257 256 255 256 256 256 256 256 255 256 257
271 269 268 267 266 265 267 268 269 270 270 269 267 266 266 265 263 261 261 261 260 260 260 260 260 260 259 259 259 258 258 258 258 257 256 256 256 256 256 256 255 256 257
271 270 268 267 267 266 267 268 269 270 270 269 268 267 267 266 265 263 262 261 261 260 259 260 259 260 259 259 258 258 258 258 258 257 256 256 256 257 256 256 256 257 257
271 272 271 269 268 267 267 268 269 270 269 270 270 269 268 266 265 265 264 264 263 262 260 260 260 259 259 259 259 259 258 259 259 258 257 257 257 258 257 257 257 257 258
273 273 272 271 270 269 269 269 270 270 271 272 271 270 269 268 266 266 266 265 265 263 262 261 261 260 260 260 260 260 259 259 259 259 258 258 258 258 258 258 258 258 258
275 275 274 273 272 271 270 270 271 272 272 272 271 270 269 269 268 266 266 265 264 264 264 263 263 262 262 261 260 260 260 259 259 259 259 258 259 259 259 259 258 258 258
277 276 276 275 273 272 272 271 271 272 272 271 270 269 268 268 268 267 266 265 265 265 265 264 264 264 263 262 262 261 260 259 260 260 260 259 259 259 258 258 258 259 259
279 278 277 275 273 273 273 273 273 272 272 271 271 270 268 268 268 268 267 267 266 266 266 266 266 265 264 263 263 262 261 261 260 260 259 259 259 258 258 258 258 259 259
281 280 278 276 275 274 274 273 273 273 272 271 271 270 269 268 268 268 268 268 268 268 268 268 267 266 266 264 263 263 262 262 261 261 260 259 258 258 258 258 258 258 258
282 281 279 277 276 275 275 275 274 274 273 273 273 272 270 269 268 269 269 269 270 270 270 270 269 269 267 266 264 264 263 263 262 260 259 259 259 259 259 259 258 258 258
281 280 280 278 277 276 276 276 275 275 274 274 274 273 272 271 269 270 271 271 272 272 273 272 272 271 269 268 266 264 263 262 261 260 259 259 259 259 259 259 259 258 258
281 280 280 279 278 277 277 276 276 276 276 276 275 275 274 272 271 271 271 272 273 273 274 273 272 271 269 268 265 263 262 261 260 259 259 258 259 259 259 258 258 258 258
281 281 281 280 279 279 278 277 277 277 277 277 276 275 274 274 273 273 273 273 273 274 274 273 272 271 269 267 265 262 261 261 260 260 260 259 259 259 258 258 258 259 259
283 283 283 282 281 280 279 279 279 278 278 277 277 276 276 276 276 275 274 274 273 274 275 275 273 271 270 269 266 264 262 261 260 259 259 259 259 258 258 258 258 259 259
284 283 283 283 282 281 281 280 279 279 278 278 278 278 278 278 277 277 275 275 274 274 274 274 274 273 272 270 268 265 262 261 260 259 258 258 258 258 258 258 259 260 260
Height
5693 5694 5695 5696 5698 5700 5701 5703 5705 5707 5708 5709 5710 5711 5712 5713 5714 5716 5717 5718 5720 5721 5723 5724 5725 5727 5728 5729 5730 5731 5732 5733 5734 5735 5736 5738 5739 5741 5743 5745 5747 5749 5751
5682 5683 5684 5685 5687 5689 5690 5692 5693 5695 5696 5697 5698 5699 5700 5701 5702 5704 5705 5706 5708 5709 5711 5712 5713 5715 5716 5717 5718 5720 5721 5722 5723 5724 5725 5726 5729 5730 5732 5734 5736 5738 5740
5672 5672 5673 5674 5676 5677 5679 5681 5682 5683 5684 5685 5685 5686 5687 5688 5690 5692 5693 5694 5695 5697 5698 5699 5701 5702 5703 5705 5706 5707 5708 5710 5711 5712 5713 5715 5717 5719 5721 5722 5724 5726 5729
5661 5661 5662 5663 5665 5666 5667 5668 5670 5671 5672 5672 5673 5674 5675 5676 5678 5679 5680 5681 5682 5684 5685 5686 5687 5689 5690 5691 5693 5694 5695 5696 5698 5699 5701 5703 5705 5707 5709 5711 5712 5714 5717
5650 5651 5651 5653 5654 5655 5655 5656 5657 5658 5659 5659 5660 5661 5662 5664 5665 5666 5667 5668 5669 5670 5671 5672 5673 5674 5676 5677 5678 5680 5681 5683 5684 5686 5688 5690 5691 5693 5695 5698 5700 5702 5704
5640 5640 5641 5641 5642 5643 5644 5644 5645 5646 5646 5646 5647 5648 5649 5650 5651 5653 5654 5655 5655 5656 5657 5658 5659 5660 5661 5662 5664 5665 5667 5669 5671 5672 5674 5676 5678 5680 5681 5684 5686 5688 5691
5629 5629 5629 5630 5630 5631 5632 5632 5632 5633 5633 5633 5634 5635 5635 5637 5638 5639 5640 5641 5641 5641 5643 5643 5644 5645 5646 5647 5649 5651 5652 5654 5656 5658 5660 5662 5664 5666 5668 5670 5672 5675 5677
5617 5618 5618 5618 5619 5619 5619 5619 5619 5620 5620 5620 5620 5621 5621 5622 5623 5624 5625 5626 5626 5627 5628 5628 5629 5630 5631 5633 5634 5636 5638 5639 5641 5643 5645 5647 5649 5652 5654 5656 5658 5661 5663
5605 5605 5606 5606 5606 5607 5606 5606 5606 5606 5607 5607 5607 5607 5607 5608 5609 5609 5610 5610 5611 5612 5612 5613 5614 5616 5617 5618 5619 5621 5623 5625 5626 5629 5630 5633 5635 5637 5639 5641 5644 5646 5649
5593 5593 5593 5594 5594 5594 5594 5594 5593 5593 5593 5593 5593 5593 5593 5593 5594 5594 5595 5595 5596 5597 5597 5599 5600 5601 5602 5603 5604 5606 5608 5609 5611 5613 5615 5617 5620 5622 5624 5627 5629 5631 5633
5581 5581 5580 5581 5581 5581 5581 5581 5580 5580 5580 5579 5579 5578 5578 5578 5579 5579 5580 5581 5581 5582 5583 5584 5585 5586 5587 5588 5589 5590 5592 5593 5595 5598 5600 5603 5605 5607 5609 5611 5613 5615 5617
5569 5568 5568 5568 5569 5568 5568 5568 5567 5567 5566 5565 5565 5564 5564 5564 5564 5565 5566 5566 5567 5567 5568 5569 5569 5570 5571 5572 5573 5574 5576 5578 5579 5581 5584 5586 5589 5591 5593 5596 5598 5600 5601
5556 5556 5556 5556 5556 5556 5555 5555 5554 5553 5552 5552 5551 5550 5550 5550 5550 5550 5551 5551 5552 5552 5553 5553 5554 5554 5555 5556 5557 5559 5560 5562 5564 5565 5568 5570 5572 5575 5577 5579 5581 5583 5585
5545 5544 5544 5543 5543 5543 5542 5542 5541 5540 5539 5538 5537 5537 5536 5536 5536 5536 5536 5536 5536 5537 5537 5537 5538 5539 5539 5540 5542 5543 5545 5546 5548 5549 5551 5553 5555 5557 5559 5562 5564 5565 5567
5534 5533 5532 5531 5530 5530 5529 5529 5528 5527 5526 5525 5524 5523 5522 5522 5522 5521 5522 5521 5521 5521 5522 5521 5522 5523 5523 5524 5525 5527 5529 5530 5532 5533 5535 5536 5538 5540 5542 5544 5546 5548 5549
5523 5521 5520 5519 5518 5517 5516 5515 5514 5513 5512 5512 5511 5509 5509 5508 5508 5508 5507 5507 5506 5506 5506 5506 5507 5507 5508 5508 5509 5510 5512 5514 5515 5517 5518 5519 5521 5522 5524 5526 5528 5530 5532
5511 5510 5508 5506 5505 5504 5503 5502 5501 5500 5499 5498 5497 5496 5494 5494 5494 5494 5493 5493 5492 5491 5491 5491 5491 5492 5492 5492 5493 5493 5495 5497 5498 5500 5501 5502 5504 5505 5506 5508 5510 5512 5514
5499 5497 5495 5494 5493 5491 5490 5489 5488 5486 5485 5484 5483 5482 5481 5481 5480 5480 5479 5478 5477 5477 5477 5476 5476 5476 5476 5476 5476 5476 5477 5479 5481 5482 5483 5484 5486 5487 5489 5491 5492 5494 5497
5487 5485 5483 5482 5480 5479 5478 5476 5475 5473 5472 5471 5470 5469 5468 5467 5467 5466 5465 5464 5463 5463 5462 5461 5461 5461 5460 5460 5460 5459 5460 5462 5463 5464 5465 5467 5469 5471 5472 5473 5476 5478 5479
5475 5473 5472 5470 5468 5467 5466 5464 5463 5461 5459 5458 5457 5456 5455 5454 5453 5453 5452 5450 5450 5449 5447 5446 5446 5445 5445 5444 5443 5443 5444 5445 5447 5448 5449 5450 5452 5453 5454 5455 5458 5460 5462
5465 5463 5461 5459 5457 5455 5454 5452 5451 5449 5447 5446 5444 5443 5441 5440 5440 5439 5438 5437 5436 5435 5434 5432 5431 5430 5429 5428 5428 5427 5427 5428 5429 5431 5432 5433 5435 5436 5437 5439 5441 5443 5445
5454 5452 5450 5447 5446 5444 5442 5441 5439 5437 5435 5433 5432 5430 5428 5427 5426 5425 5424 5423 5421 5420 5419 5417 5416 5414 5413 5413 5412 5412 5412 5412 5413 5414 5416 5418 5418 5420 5421 5423 5424 5426 5427
5443 5441 5438 5436 5434 5432 5430 5429 5427 5425 5423 5421 5419 5417 5415 5413 5412 5411 5410 5409 5407 5406 5404 5402 5401 5400 5398 5397 5396 5396 5397 5397 5397 5399 5401 5402 5403 5404 5406 5407 5408 5409 5411
5432 5429 5427 5425 5422 5420 5418 5416 5414 5412 5410 5408 5406 5404 5402 5400 5398 5397 5396 5395 5393 5392 5390 5388 5386 5385 5384 5383 5382 5382 5382 5382 5383 5384 5386 5387 5387 5388 5390 5392 5393 5394 5395
5421 5418 5415 5413 5410 5408 5406 5404 5402 5400 5398 5395 5393 5391 5389 5387 5385 5383 5382 5380 5379 5377 5375 5374 5372 5371 5370 5369 5368 5368 5368 5369 5369 5370 5371 5372 5373 5374 5375 5377 5378 5379 5380
5409 5406 5404 5401 5399 5396 5394 5392 5390 5387 5385 5383 5380 5378 5376 5374 5372 5370 5368 5365 5364 5362 5361 5359 5358 5357 5356 5355 5354 5354 5354 5355 5355 5356 5356 5358 5359 5360 5361 5362 5364 5365 5366